Time,TemperatureF,DewpointF,PressureIn,WindDirection,WindDirectionDegrees,WindSpeedMPH,WindSpeedGustMPH,Humidity,HourlyPrecipIn,Conditions,Clouds,dailyrainin,SoftwareType,DateUTC
2013-05-15 00:00:00,70.4,44.2,29.96,NNW,338,4.5,4.5,39,0.00,,,0.00,WUHU216HW,2013-05-15 05:00:00,
2013-05-15 00:05:00,70.4,44.2,29.96,NNW,338,4.5,4.5,39,0.00,,,0.00,WUHU216HW,2013-05-15 05:05:00,
2013-05-15 00:30:00,68.6,44.6,29.97,WNW,293,3.4,3.4,42,0.00,,,0.00,WUHU216HW,2013-05-15 05:30:00,
2013-05-15 00:35:00,68.6,44.6,29.97,WNW,293,3.4,3.4,42,0.00,,,0.00,WUHU216HW,2013-05-15 05:35:00,
2013-05-15 00:59:00,67.1,44.4,29.98,North,0,3.6,3.6,44,0.00,,,0.00,WUHU216HW,2013-05-15 05:59:00,
2013-05-15 01:00:00,67.1,44.4,29.98,North,0,3.6,3.6,44,0.00,,,0.00,WUHU216HW,2013-05-15 06:00:00,
2013-05-15 01:05:00,67.1,44.4,29.98,North,0,3.6,3.6,44,0.00,,,0.00,WUHU216HW,2013-05-15 06:05:00,
2013-05-15 01:30:00,65.9,44.5,30.00,NW,315,2.7,2.7,46,0.00,,,0.00,WUHU216HW,2013-05-15 06:30:00,
2013-05-15 01:35:00,65.9,44.5,30.00,NW,315,2.7,2.7,46,0.00,,,0.00,WUHU216HW,2013-05-15 06:35:00,
2013-05-15 01:59:00,64.6,44.4,30.01,WNW,293,9.2,9.2,48,0.00,,,0.00,WUHU216HW,2013-05-15 06:59:00,
2013-05-15 02:00:00,64.6,44.4,30.01,WNW,293,9.2,9.2,48,0.00,,,0.00,WUHU216HW,2013-05-15 07:00:00,
2013-05-15 02:05:00,64.6,44.4,30.01,WNW,293,9.2,9.2,48,0.00,,,0.00,WUHU216HW,2013-05-15 07:05:00,
2013-05-15 02:29:00,63.5,44.0,30.03,North,0,3.6,3.6,49,0.00,,,0.00,WUHU216HW,2013-05-15 07:29:00,
2013-05-15 02:30:00,63.5,44.0,30.03,North,0,3.6,3.6,49,0.00,,,0.00,WUHU216HW,2013-05-15 07:30:00,
2013-05-15 02:35:00,63.5,44.0,30.03,North,0,3.6,3.6,49,0.00,,,0.00,WUHU216HW,2013-05-15 07:35:00,
2013-05-15 03:00:00,62.3,43.4,30.03,North,0,3.1,3.1,50,0.00,,,0.00,WUHU216HW,2013-05-15 08:00:00,
2013-05-15 03:05:00,62.3,43.4,30.03,North,0,3.1,3.1,50,0.00,,,0.00,WUHU216HW,2013-05-15 08:05:00,
2013-05-15 03:29:00,61.2,42.9,30.04,North,0,1.1,1.1,51,0.00,,,0.00,WUHU216HW,2013-05-15 08:29:00,
2013-05-15 03:30:00,61.2,42.9,30.04,North,0,1.1,1.1,51,0.00,,,0.00,WUHU216HW,2013-05-15 08:30:00,
2013-05-15 03:35:00,61.2,42.9,30.04,North,0,1.1,1.1,51,0.00,,,0.00,WUHU216HW,2013-05-15 08:35:00,
2013-05-15 03:59:00,60.1,42.4,30.07,NW,315,1.8,1.8,52,0.00,,,0.00,WUHU216HW,2013-05-15 08:59:00,
2013-05-15 04:00:00,60.1,42.4,30.07,NW,315,1.8,1.8,52,0.00,,,0.00,WUHU216HW,2013-05-15 09:00:00,
2013-05-15 04:05:00,60.1,42.4,30.07,NW,315,1.8,1.8,52,0.00,,,0.00,WUHU216HW,2013-05-15 09:05:00,
2013-05-15 04:29:00,59.0,42.4,30.08,WSW,248,1.6,1.6,54,0.00,,,0.00,WUHU216HW,2013-05-15 09:29:00,
2013-05-15 04:30:00,59.0,42.4,30.08,WSW,248,1.6,1.6,54,0.00,,,0.00,WUHU216HW,2013-05-15 09:30:00,
2013-05-15 04:35:00,59.0,42.4,30.08,WSW,248,1.6,1.6,54,0.00,,,0.00,WUHU216HW,2013-05-15 09:35:00,
2013-05-15 05:00:00,58.0,42.3,30.09,WNW,293,0.0,0.0,56,0.00,,,0.00,WUHU216HW,2013-05-15 10:00:00,
2013-05-15 05:05:00,58.0,42.3,30.09,WNW,293,0.0,0.0,56,0.00,,,0.00,WUHU216HW,2013-05-15 10:05:00,
2013-05-15 05:30:00,56.0,41.4,30.10,WSW,248,0.0,0.0,58,0.00,,,0.00,WUHU216HW,2013-05-15 10:30:00,
2013-05-15 05:35:00,56.0,41.4,30.10,WSW,248,0.0,0.0,58,0.00,,,0.00,WUHU216HW,2013-05-15 10:35:00,
2013-05-15 06:00:00,54.4,41.2,30.12,West,270,0.4,0.4,61,0.00,,,0.00,WUHU216HW,2013-05-15 11:00:00,
2013-05-15 06:05:00,54.4,41.2,30.12,West,270,0.4,0.4,61,0.00,,,0.00,WUHU216HW,2013-05-15 11:05:00,
2013-05-15 06:30:00,54.5,42.2,30.14,SW,225,1.3,1.3,63,0.00,,,0.00,WUHU216HW,2013-05-15 11:30:00,
2013-05-15 06:35:00,54.5,42.2,30.14,SW,225,1.3,1.3,63,0.00,,,0.00,WUHU216HW,2013-05-15 11:35:00,
2013-05-15 07:00:00,56.3,43.9,30.15,West,270,0.4,0.4,63,0.00,,,0.00,WUHU216HW,2013-05-15 12:00:00,
2013-05-15 07:05:00,56.3,43.9,30.15,West,270,0.4,0.4,63,0.00,,,0.00,WUHU216HW,2013-05-15 12:05:00,
2013-05-15 07:30:00,59.2,45.8,30.17,North,0,5.4,5.4,61,0.00,,,0.00,WUHU216HW,2013-05-15 12:30:00,
2013-05-15 07:35:00,59.2,45.8,30.17,North,0,5.4,5.4,61,0.00,,,0.00,WUHU216HW,2013-05-15 12:35:00,
2013-05-15 07:59:00,61.2,46.4,30.17,NNW,338,3.4,3.4,58,0.00,,,0.00,WUHU216HW,2013-05-15 12:59:00,
2013-05-15 08:00:00,61.2,46.4,30.17,NNW,338,3.4,3.4,58,0.00,,,0.00,WUHU216HW,2013-05-15 13:00:00,
2013-05-15 08:05:00,61.2,46.4,30.17,NNW,338,3.4,3.4,58,0.00,,,0.00,WUHU216HW,2013-05-15 13:05:00,
2013-05-15 08:29:00,62.6,46.6,30.16,NNW,338,2.2,2.2,56,0.00,,,0.00,WUHU216HW,2013-05-15 13:29:00,
2013-05-15 08:30:00,62.6,46.6,30.16,NNW,338,2.2,2.2,56,0.00,,,0.00,WUHU216HW,2013-05-15 13:30:00,
2013-05-15 08:35:00,62.6,46.6,30.16,NNW,338,2.2,2.2,56,0.00,,,0.00,WUHU216HW,2013-05-15 13:35:00,
2013-05-15 08:59:00,63.2,46.6,30.11,NE,45,6.3,6.3,55,0.00,,,0.00,WUHU216HW,2013-05-15 13:59:00,
2013-05-15 09:00:00,63.2,46.6,30.11,NE,45,6.3,6.3,55,0.00,,,0.00,WUHU216HW,2013-05-15 14:00:00,
2013-05-15 09:05:00,63.2,46.6,30.11,NE,45,6.3,6.3,55,0.00,,,0.00,WUHU216HW,2013-05-15 14:05:00,
2013-05-15 09:29:00,63.0,46.5,30.15,WNW,293,0.7,0.7,55,0.00,,,0.00,WUHU216HW,2013-05-15 14:29:00,
2013-05-15 09:30:00,63.0,46.5,30.15,WNW,293,0.7,0.7,55,0.00,,,0.00,WUHU216HW,2013-05-15 14:30:00,
2013-05-15 09:35:00,63.0,46.5,30.15,WNW,293,0.7,0.7,55,0.00,,,0.00,WUHU216HW,2013-05-15 14:35:00,
2013-05-15 09:59:00,61.9,50.1,30.17,West,270,2.2,2.2,65,0.01,,,0.00,WUHU216HW,2013-05-15 14:59:00,
2013-05-15 10:00:00,61.9,50.1,30.17,West,270,2.2,2.2,65,0.01,,,0.00,WUHU216HW,2013-05-15 15:00:00,
2013-05-15 10:05:00,61.9,50.1,30.17,West,270,2.2,2.2,65,0.01,,,0.00,WUHU216HW,2013-05-15 15:05:00,
2013-05-15 10:29:00,61.9,50.1,30.15,South,180,0.0,0.0,65,0.01,,,0.01,WUHU216HW,2013-05-15 15:29:00,
2013-05-15 10:30:00,61.9,50.1,30.15,South,180,0.0,0.0,65,0.01,,,0.01,WUHU216HW,2013-05-15 15:30:00,
2013-05-15 10:35:00,61.9,50.1,30.15,South,180,0.0,0.0,65,0.01,,,0.01,WUHU216HW,2013-05-15 15:35:00,
2013-05-15 10:59:00,62.3,51.2,30.17,South,180,2.5,2.5,67,0.00,,,0.01,WUHU216HW,2013-05-15 15:59:00,
2013-05-15 11:00:00,62.3,51.2,30.17,South,180,2.5,2.5,67,0.00,,,0.01,WUHU216HW,2013-05-15 16:00:00,
2013-05-15 11:05:00,62.3,51.2,30.17,South,180,2.5,2.5,67,0.00,,,0.01,WUHU216HW,2013-05-15 16:05:00,
2013-05-15 11:30:00,63.2,51.2,30.17,West,270,1.1,1.1,65,0.00,,,0.01,WUHU216HW,2013-05-15 16:30:00,
2013-05-15 11:36:00,63.2,51.2,30.17,West,270,1.1,1.1,65,0.00,,,0.01,WUHU216HW,2013-05-15 16:36:00,
2013-05-15 11:59:00,64.1,50.8,30.18,West,270,4.7,4.7,62,0.00,,,0.01,WUHU216HW,2013-05-15 16:59:00,
2013-05-15 12:00:00,64.1,50.8,30.18,West,270,4.7,4.7,62,0.00,,,0.01,WUHU216HW,2013-05-15 17:00:00,
2013-05-15 12:05:00,64.1,50.8,30.18,West,270,4.7,4.7,62,0.00,,,0.01,WUHU216HW,2013-05-15 17:05:00,
2013-05-15 12:30:00,64.8,50.1,30.17,SSW,203,4.9,4.9,59,0.00,,,0.01,WUHU216HW,2013-05-15 17:30:00,
2013-05-15 12:35:00,64.8,50.1,30.17,SSW,203,4.9,4.9,59,0.00,,,0.01,WUHU216HW,2013-05-15 17:35:00,
2013-05-15 12:59:00,66.2,50.6,30.16,SW,225,4.5,4.5,57,0.00,,,0.01,WUHU216HW,2013-05-15 17:59:00,
2013-05-15 13:00:00,66.2,50.6,30.16,SW,225,4.5,4.5,57,0.00,,,0.01,WUHU216HW,2013-05-15 18:00:00,
2013-05-15 13:05:00,66.2,50.6,30.16,SW,225,4.5,4.5,57,0.00,,,0.01,WUHU216HW,2013-05-15 18:05:00,
2013-05-15 13:30:00,68.2,50.0,30.15,SSW,203,4.0,4.0,52,0.00,,,0.01,WUHU216HW,2013-05-15 18:30:00,
2013-05-15 13:35:00,68.2,50.0,30.15,SSW,203,4.0,4.0,52,0.00,,,0.01,WUHU216HW,2013-05-15 18:35:00,
2013-05-15 13:59:00,69.8,48.6,30.13,West,270,3.8,3.8,47,0.00,,,0.01,WUHU216HW,2013-05-15 18:59:00,
2013-05-15 14:00:00,69.8,48.6,30.13,West,270,3.8,3.8,47,0.00,,,0.01,WUHU216HW,2013-05-15 19:00:00,
2013-05-15 14:05:00,69.8,48.6,30.13,West,270,3.8,3.8,47,0.00,,,0.01,WUHU216HW,2013-05-15 19:05:00,
2013-05-15 14:30:00,71.6,49.1,30.13,South,180,3.1,3.1,45,0.00,,,0.01,WUHU216HW,2013-05-15 19:30:00,
2013-05-15 14:35:00,71.6,49.1,30.13,South,180,3.1,3.1,45,0.00,,,0.01,WUHU216HW,2013-05-15 19:35:00,
2013-05-15 14:59:00,72.9,49.6,30.12,WSW,248,5.8,5.8,44,0.00,,,0.01,WUHU216HW,2013-05-15 19:59:00,
2013-05-15 15:00:00,72.9,49.6,30.12,WSW,248,5.8,5.8,44,0.00,,,0.01,WUHU216HW,2013-05-15 20:00:00,
2013-05-15 15:05:00,72.9,49.6,30.12,WSW,248,5.8,5.8,44,0.00,,,0.01,WUHU216HW,2013-05-15 20:05:00,
2013-05-15 15:30:00,74.3,49.2,30.11,ESE,113,2.7,2.7,41,0.00,,,0.01,WUHU216HW,2013-05-15 20:30:00,
2013-05-15 15:35:00,74.3,49.2,30.11,ESE,113,2.7,2.7,41,0.00,,,0.01,WUHU216HW,2013-05-15 20:35:00,
2013-05-15 15:59:00,75.8,51.0,30.10,SSW,203,6.9,6.9,42,0.00,,,0.01,WUHU216HW,2013-05-15 20:59:00,
2013-05-15 16:00:00,75.8,51.0,30.10,SSW,203,6.9,6.9,42,0.00,,,0.01,WUHU216HW,2013-05-15 21:00:00,
2013-05-15 16:05:00,75.8,51.0,30.10,SSW,203,6.9,6.9,42,0.00,,,0.01,WUHU216HW,2013-05-15 21:05:00,
2013-05-15 16:30:00,76.7,49.9,30.09,West,270,3.8,3.8,39,0.00,,,0.01,WUHU216HW,2013-05-15 21:30:00,
2013-05-15 16:35:00,76.7,49.9,30.09,West,270,3.8,3.8,39,0.00,,,0.01,WUHU216HW,2013-05-15 21:35:00,
2013-05-15 16:59:00,78.1,51.1,30.08,SW,225,7.4,7.4,39,0.00,,,0.01,WUHU216HW,2013-05-15 21:59:00,
2013-05-15 17:00:00,78.1,51.1,30.08,SW,225,7.4,7.4,39,0.00,,,0.01,WUHU216HW,2013-05-15 22:00:00,
2013-05-15 17:05:00,78.1,51.1,30.08,SW,225,7.4,7.4,39,0.00,,,0.01,WUHU216HW,2013-05-15 22:05:00,
2013-05-15 17:30:00,78.1,50.4,30.08,SSW,203,6.9,6.9,38,0.00,,,0.01,WUHU216HW,2013-05-15 22:30:00,
2013-05-15 17:35:00,78.1,50.4,30.08,SSW,203,6.9,6.9,38,0.00,,,0.01,WUHU216HW,2013-05-15 22:35:00,
2013-05-15 18:00:00,79.2,51.3,30.08,WSW,248,8.5,8.5,38,0.00,,,0.01,WUHU216HW,2013-05-15 23:00:00,
2013-05-15 18:05:00,79.2,51.3,30.08,WSW,248,8.5,8.5,38,0.00,,,0.01,WUHU216HW,2013-05-15 23:05:00,
2013-05-15 18:30:00,80.1,52.1,30.07,West,270,4.3,4.3,38,0.00,,,0.01,WUHU216HW,2013-05-15 23:30:00,
2013-05-15 18:36:00,80.1,52.1,30.07,West,270,4.3,4.3,38,0.00,,,0.01,WUHU216HW,2013-05-15 23:36:00,
2013-05-15 18:59:00,83.5,53.7,30.07,SW,225,5.8,5.8,36,0.00,,,0.01,WUHU216HW,2013-05-15 23:59:00,
2013-05-15 19:00:00,83.5,53.7,30.07,SW,225,5.8,5.8,36,0.00,,,0.01,WUHU216HW,2013-05-16 00:00:00,
2013-05-15 19:05:00,83.5,53.7,30.07,SW,225,5.8,5.8,36,0.00,,,0.01,WUHU216HW,2013-05-16 00:05:00,
2013-05-15 19:30:00,86.0,52.8,30.07,West,270,4.9,4.9,32,0.00,,,0.01,WUHU216HW,2013-05-16 00:30:00,
2013-05-15 19:35:00,86.0,52.8,30.07,West,270,4.9,4.9,32,0.00,,,0.01,WUHU216HW,2013-05-16 00:35:00,
2013-05-15 20:00:00,85.3,52.0,30.07,SSW,203,3.4,3.4,32,0.00,,,0.01,WUHU216HW,2013-05-16 01:00:00,
2013-05-15 20:05:00,85.3,52.0,30.07,SSW,203,3.4,3.4,32,0.00,,,0.01,WUHU216HW,2013-05-16 01:05:00,
2013-05-15 20:30:00,79.0,48.9,30.07,SSW,203,0.4,0.4,35,0.00,,,0.01,WUHU216HW,2013-05-16 01:30:00,
2013-05-15 20:35:00,79.0,48.9,30.07,SSW,203,0.4,0.4,35,0.00,,,0.01,WUHU216HW,2013-05-16 01:35:00,
2013-05-15 21:00:00,74.5,47.9,30.07,SSW,203,0.0,0.0,39,0.00,,,0.01,WUHU216HW,2013-05-16 02:00:00,
2013-05-15 21:05:00,74.5,47.9,30.07,SSW,203,0.0,0.0,39,0.00,,,0.01,WUHU216HW,2013-05-16 02:05:00,
2013-05-15 21:30:00,70.6,47.5,30.08,WSW,248,0.0,0.0,44,0.00,,,0.01,WUHU216HW,2013-05-16 02:30:00,
2013-05-15 21:35:00,70.6,47.5,30.08,WSW,248,0.0,0.0,44,0.00,,,0.01,WUHU216HW,2013-05-16 02:35:00,
2013-05-15 22:00:00,67.1,48.0,30.08,WNW,293,0.7,0.7,50,0.00,,,0.01,WUHU216HW,2013-05-16 03:00:00,
2013-05-15 22:05:00,67.1,48.0,30.08,WNW,293,0.7,0.7,50,0.00,,,0.01,WUHU216HW,2013-05-16 03:05:00,
2013-05-15 22:30:00,65.2,47.5,30.08,WSW,248,0.0,0.0,53,0.00,,,0.01,WUHU216HW,2013-05-16 03:30:00,
2013-05-15 22:35:00,65.2,47.5,30.08,WSW,248,0.0,0.0,53,0.00,,,0.01,WUHU216HW,2013-05-16 03:35:00,
2013-05-15 22:59:00,63.7,47.2,30.09,WSW,248,0.0,0.0,55,0.00,,,0.01,WUHU216HW,2013-05-16 03:59:00,
2013-05-15 23:00:00,63.7,47.2,30.09,WSW,248,0.0,0.0,55,0.00,,,0.01,WUHU216HW,2013-05-16 04:00:00,
2013-05-15 23:01:00,63.7,47.2,30.09,WSW,248,0.0,0.0,55,0.00,,,0.01,WUHU216HW,2013-05-16 04:01:00,
2013-05-15 23:06:00,63.7,47.2,30.09,WSW,248,0.0,0.0,55,0.00,,,0.01,WUHU216HW,2013-05-16 04:06:00,
2013-05-15 23:30:00,63.0,47.0,30.08,WSW,248,0.0,0.0,56,0.00,,,0.01,WUHU216HW,2013-05-16 04:30:00,
2013-05-15 23:35:00,63.0,47.0,30.08,WSW,248,0.0,0.0,56,0.00,,,0.01,WUHU216HW,2013-05-16 04:35:00,
2013-05-15 23:59:00,62.3,46.8,30.09,SW,225,0.4,0.4,57,0.00,,,0.01,WUHU216HW,2013-05-16 04:59:00,